Theta_e
295 295 295 295 295 294 294 293 293 293 293 292 292 292 292 291 291 291 290 290 290 290 290 289 289 289 289 288 288 288 287 287 287 287 287 287 287 287 287 287 287 287
295 295 294 294 294 294 293 293 293 293 292 292 292 292 291 291 291 290 290 290 290 290 289 289 289 289 289 288 288 287 287 287 287 287 287 287 287 287 287 287 287 287
294 294 294 293 293 293 293 292 292 292 291 291 291 290 290 290 290 289 289 289 288 288 288 288 287 287 287 287 287 287 287 287 287 287 287 287 287 287 287 287 287 287
293 293 293 293 293 292 292 291 291 291 290 290 290 289 289 289 288 288 288 287 287 287 287 287 286 286 286 286 286 286 286 286 286 286 286 287 287 287 287 287 287 287
292 292 292 292 291 291 291 291 290 290 290 289 289 289 288 288 288 288 287 287 287 287 286 286 286 286 286 286 286 286 286 286 286 286 286 286 286 286 286 286 286 286
292 291 291 291 290 290 290 290 290 289 289 289 288 288 288 288 288 287 287 287 287 287 287 286 286 286 286 286 286 286 286 286 286 286 286 286 286 286 286 286 286 285
291 290 290 290 290 290 290 289 289 289 289 288 288 288 288 288 288 288 287 287 287 287 287 287 286 286 286 286 286 286 286 286 286 285 285 285 285 285 285 285 285 285
290 290 290 290 289 289 289 289 289 289 289 288 288 288 288 288 288 288 288 288 287 287 287 287 286 286 286 285 285 285 285 285 285 285 285 285 285 285 285 285 285 285
290 290 289 289 289 289 289 289 289 289 289 288 288 288 288 288 288 288 288 288 287 287 287 286 286 285 285 285 285 285 285 285 285 285 285 285 285 285 285 285 285 284
290 290 289 289 289 289 289 289 289 289 288 288 288 288 288 288 288 288 288 287 287 287 286 286 285 285 285 285 285 285 285 285 285 285 285 285 285 285 284 284 284 284
290 289 289 289 289 289 289 289 289 288 288 288 288 288 288 288 288 288 287 287 287 286 286 285 285 285 284 284 284 284 284 284 284 284 284 284 284 284 284 284 284 283
290 289 289 289 289 289 289 288 288 288 288 288 288 287 287 287 287 287 287 287 286 286 285 285 284 284 284 284 284 284 284 284 284 284 284 284 284 284 284 284 283 283
290 289 289 289 289 289 289 288 288 288 288 288 287 287 287 287 287 287 287 286 286 285 285 284 284 284 284 284 284 284 284 284 284 284 284 284 284 284 284 283 283 282
290 289 289 289 289 289 288 288 288 288 288 287 287 287 287 287 287 286 286 286 286 285 284 284 283 283 283 284 284 284 284 284 284 284 284 284 284 284 283 283 282 282
290 289 289 289 289 289 288 288 288 288 287 287 287 287 287 286 286 286 286 286 285 284 284 283 283 283 283 283 283 284 284 284 284 284 284 284 284 283 283 282 282 282
289 289 289 289 289 288 288 288 288 288 287 287 287 287 287 286 286 286 286 285 285 284 283 283 283 283 283 283 283 283 283 284 284 283 283 283 283 283 282 282 282 281
289 289 289 289 289 288 288 288 288 288 287 287 287 287 287 286 286 286 286 285 285 284 283 282 282 283 283 283 283 283 283 283 283 283 283 283 283 282 282 282 281 281
289 289 289 289 289 288 288 288 288 288 287 287 287 287 287 286 286 286 286 285 284 283 282 282 282 282 283 283 283 283 283 283 283 283 283 283 282 282 282 281 281 280
289 289 289 289 289 288 288 288 288 288 287 287 287 287 287 286 286 286 285 285 284 283 282 282 282 282 282 283 283 283 283 282 283 282 282 282 282 282 281 281 280 280
289 289 289 289 289 288 288 288 288 288 287 287 287 287 287 286 286 285 285 285 284 283 282 282 282 282 282 282 282 282 282 282 282 282 282 282 281 281 281 280 280 279
289 289 289 289 289 288 288 288 288 288 287 287 287 287 287 286 286 285 285 284 283 282 282 281 282 282 282 282 282 282 282 282 282 282 282 281 281 281 280 280 279 279
289 290 289 289 288 288 288 288 288 288 287 287 287 287 287 286 286 285 285 284 283 282 282 281 281 282 282 282 282 282 282 282 282 281 281 281 281 280 280 279 279 279
290 290 289 289 288 288 288 288 288 287 287 287 287 287 287 286 286 285 285 284 282 282 281 281 281 281 282 282 282 282 281 281 281 281 281 281 280 280 279 279 279 278
290 290 290 289 288 288 288 288 287 287 287 287 287 286 286 286 286 285 284 283 282 281 281 281 281 281 282 282 281 281 281 281 281 281 281 280 280 279 279 279 279 278
290 290 289 289 288 288 288 287 287 287 287 287 286 286 286 286 285 285 284 283 282 281 281 281 281 281 281 281 281 281 281 281 281 280 280 279 279 279 279 279 278 278
290 290 289 289 288 288 288 287 287 287 287 287 286 286 286 286 285 285 284 283 281 281 281 281 281 281 281 281 281 280 280 280 280 279 279 279 279 279 279 278 277 276
Wind_Speed
7 6 5 3 2 1 2 2 3 5 6 7 9 10 11 12 13 14 15 15 16 17 17 17 18 18 18 18 18 18 19 19 19 19 20 21 21 22 22 23 23 24
6 5 4 3 2 0 1 2 3 5 6 7 8 9 11 12 13 13 14 15 15 16 16 17 17 18 18 18 19 19 20 20 21 21 22 23 23 24 25 25 26 26
6 6 5 3 2 2 2 3 4 5 6 7 8 9 10 11 11 12 12 12 13 13 13 14 14 14 15 16 17 18 19 20 21 22 23 24 25 26 27 28 28 29
7 6 5 3 3 3 3 4 4 5 7 8 9 9 10 10 11 11 11 11 11 12 12 13 14 14 15 16 17 18 19 20 22 23 24 25 26 27 28 29 30 31
8 6 5 5 4 4 4 4 5 6 7 8 9 10 10 10 10 10 11 11 12 12 13 14 15 16 17 18 19 20 21 22 23 24 25 26 26 27 28 28 30 31
8 7 6 6 5 4 4 4 5 6 7 8 9 10 10 10 11 11 12 13 13 14 15 16 17 18 18 19 20 21 22 23 24 25 25 26 26 26 27 28 29 31
9 8 7 7 5 4 4 5 6 7 8 9 10 11 12 13 13 14 14 15 15 16 17 18 18 19 20 20 21 22 23 24 25 26 26 26 26 27 28 29 30 31
10 9 8 7 5 5 5 6 7 8 10 12 13 13 14 15 15 16 16 17 17 18 18 19 20 20 21 22 23 24 25 26 26 27 27 27 27 28 29 30 32 33
11 10 9 7 6 6 6 7 9 11 12 13 14 15 15 15 16 16 17 18 18 19 20 20 21 22 23 24 25 26 26 27 27 27 27 27 28 29 30 31 33 34
12 11 9 8 6 6 7 8 10 12 13 14 15 15 15 16 16 17 18 19 19 20 20 21 22 23 24 25 25 26 27 27 27 27 27 27 28 29 31 32 33 35
13 11 9 8 7 7 8 10 11 13 14 15 15 15 16 16 17 18 19 19 20 20 21 22 23 23 24 25 26 26 27 27 27 27 27 28 29 30 31 33 34 35
14 12 10 8 7 8 9 10 12 14 14 15 16 16 17 18 19 19 20 20 20 20 21 22 23 24 25 25 26 26 26 26 26 27 27 28 29 30 31 33 34 34
14 12 10 9 8 9 10 11 13 14 15 16 16 17 18 19 20 20 20 20 20 21 22 23 24 24 25 25 25 26 26 26 26 27 28 29 30 31 32 33 34 34
14 12 10 9 9 9 10 12 13 15 15 16 17 18 19 20 20 21 21 21 21 21 22 23 24 24 25 25 25 26 26 26 27 27 28 29 30 32 32 33 33 33
14 12 10 9 9 10 11 13 14 15 15 16 18 19 20 20 21 21 21 21 21 22 23 23 24 24 24 25 25 26 26 27 28 28 29 30 31 32 33 33 33 34
14 12 11 10 10 11 13 14 15 16 16 17 19 20 21 21 21 21 22 22 22 23 23 23 24 24 24 24 24 25 26 27 28 28 29 30 32 32 33 34 34 34
15 13 12 11 11 12 14 15 16 17 17 18 20 21 21 21 22 22 22 23 23 24 24 24 24 24 23 24 23 24 25 26 28 29 30 31 32 33 33 34 33 33
16 15 13 13 12 14 15 16 17 18 18 19 20 22 22 22 23 23 23 24 24 25 25 24 23 23 23 23 23 23 24 26 28 29 30 31 32 33 33 33 33 33
18 16 15 14 14 16 17 17 18 19 19 21 21 22 23 23 24 24 24 24 25 25 25 24 23 23 23 22 23 23 24 26 27 29 30 31 31 32 33 33 33 33
20 18 16 16 16 17 18 18 19 20 21 22 22 23 24 24 25 25 25 25 25 26 26 24 23 23 23 22 22 23 24 26 28 29 29 30 31 32 32 33 33 33
22 20 18 18 18 18 19 19 20 21 22 22 23 24 25 26 26 26 26 26 26 27 26 25 24 23 23 23 23 23 25 27 28 29 30 30 31 31 32 33 33 33
24 22 20 20 20 19 20 20 21 22 23 23 24 25 26 26 27 27 27 26 27 27 27 25 24 24 23 23 23 24 26 27 28 29 30 30 31 31 32 32 33 32
25 23 22 21 21 21 21 21 22 23 24 24 25 25 26 27 28 28 27 27 27 28 28 26 25 24 24 24 24 25 26 28 29 30 30 31 31 31 32 33 33 32
26 25 24 23 22 22 22 23 23 24 25 25 25 26 27 27 28 28 28 27 27 28 28 27 25 24 24 24 25 26 27 28 29 30 30 30 31 31 32 33 33 34
28 27 26 24 23 23 23 24 25 25 25 26 25 26 27 27 28 29 28 27 27 27 28 27 26 25 25 25 25 25 27 28 29 29 29 29 30 31 32 32 33 35
29 27 26 24 23 24 25 25 26 26 26 26 26 27 28 28 28 29 28 27 27 27 27 27 26 26 25 25 25 25 26 27 28 28 28 29 30 30 32 33 34 33
Wind_Direction
145 143 141 130 114 76 37 7 356 349 344 343 341 339 337 336 335 334 334 334 334 334 334 334 334 334 334 334 335 335 335 336 336 336 335 335 334 333 332 331 330 329
161 163 169 173 181 254 326 323 322 321 320 321 320 320 318 317 317 318 318 319 319 319 320 321 321 322 323 324 326 328 329 330 331 331 331 332 331 331 330 329 328 327
181 186 190 195 209 260 289 292 298 302 305 308 310 311 312 312 313 313 313 313 314 314 314 315 316 317 319 320 322 324 325 326 327 328 328 328 328 328 328 327 327 326
193 194 197 212 237 257 267 277 291 300 305 310 313 314 315 315 314 312 311 311 312 314 315 316 318 320 321 324 325 326 327 327 327 328 327 327 326 326 325 326 326 325
198 202 213 227 237 245 260 279 294 302 307 312 315 317 318 317 315 313 311 312 315 317 320 321 322 323 324 325 326 326 327 327 327 327 326 325 325 324 324 324 324 324
205 212 219 226 232 243 264 283 293 302 308 312 316 318 320 320 319 319 317 317 319 320 321 321 321 321 321 322 323 324 324 325 325 325 324 325 324 324 324 324 324 324
211 217 221 225 231 245 266 283 295 306 311 314 318 319 320 321 320 320 318 317 317 317 318 318 318 318 319 320 322 323 324 324 325 325 325 325 325 325 326 326 325 325
216 220 221 223 233 251 274 292 304 312 315 316 318 318 317 318 316 315 314 313 313 314 315 316 317 319 320 321 323 324 325 325 325 325 325 325 326 326 326 326 325 325
218 218 219 225 241 261 285 302 308 312 314 314 315 314 313 312 312 311 311 311 312 313 315 317 318 319 320 322 323 324 325 325 325 325 325 325 325 325 325 325 325 324
216 216 220 231 250 272 292 303 308 311 312 312 311 309 309 309 309 310 310 311 312 313 315 316 317 318 319 321 322 323 324 324 324 324 324 324 324 325 325 325 324 324
215 217 225 240 258 281 297 304 309 310 309 309 308 307 309 310 311 311 312 312 312 313 314 315 316 317 318 320 321 322 322 322 322 322 322 322 323 324 324 324 324 325
216 221 232 248 267 287 300 305 308 309 308 308 309 310 312 313 313 313 312 312 312 312 313 314 315 316 317 319 320 321 321 321 320 320 320 321 322 323 324 324 325 325
219 227 238 255 274 289 297 302 306 308 309 310 312 314 315 315 314 313 312 311 311 311 313 314 315 316 317 319 320 320 320 319 318 319 320 321 322 323 324 324 325 326
223 231 243 259 275 285 293 299 304 306 310 314 316 317 317 316 314 313 311 309 310 311 313 314 314 315 316 317 318 318 318 318 318 319 320 321 322 322 324 325 325 326
226 235 246 260 273 282 291 297 299 303 309 315 318 319 318 317 314 312 310 308 309 311 312 313 313 314 315 316 317 317 317 317 318 319 320 320 321 323 324 325 326 326
229 236 247 260 271 282 290 293 294 299 306 314 319 320 319 318 315 312 310 308 308 310 311 312 312 312 314 314 315 316 316 316 317 318 319 321 322 323 324 325 326 327
232 237 247 259 270 281 287 289 291 296 302 310 317 320 320 318 316 313 309 308 308 309 310 310 310 310 311 312 313 315 315 315 316 317 319 321 321 322 324 325 326 326
234 239 248 258 268 278 282 285 289 293 298 305 312 318 319 318 317 313 309 306 306 307 308 308 308 308 309 310 312 313 313 313 315 317 319 320 321 322 323 323 324 325
236 240 247 258 266 275 279 281 286 289 293 299 307 315 318 318 317 313 309 306 304 305 307 306 306 306 307 309 310 311 312 313 315 317 317 319 320 321 321 322 323 325
237 240 247 257 264 271 275 278 282 286 290 295 304 312 316 317 316 313 309 305 303 304 305 305 304 304 304 306 309 311 312 313 314 316 316 317 319 319 320 321 322 324
238 241 247 256 262 268 273 276 280 284 288 294 302 309 314 315 315 313 309 305 303 304 304 304 303 303 304 306 309 311 312 313 314 314 315 316 317 319 320 320 321 322
240 243 248 254 260 267 271 274 279 283 287 293 300 306 311 313 314 312 308 304 303 303 303 303 302 302 304 307 309 311 312 312 313 313 314 316 317 318 318 318 318 320
243 246 249 253 259 266 270 273 278 282 286 291 298 304 308 311 312 311 307 302 302 302 302 301 301 302 304 306 308 310 311 311 312 313 314 316 317 317 317 316 317 319
247 248 250 253 259 266 269 272 276 280 284 289 295 301 305 309 310 309 305 301 301 302 301 300 300 301 303 304 306 309 310 311 312 312 314 315 316 316 315 315 316 318
249 250 250 253 261 266 269 272 275 278 282 287 293 299 302 306 308 308 304 300 300 301 300 299 299 300 302 303 305 308 309 309 310 311 313 314 313 313 313 314 316 319
249 249 251 255 262 267 269 272 274 276 281 286 291 296 299 303 307 306 303 300 299 300 299 298 298 299 301 302 304 306 307 308 309 310 311 312 313 313 313 315 319 321